Sioux City, IA

2:01 PM CDT on September 25, 2017 (GMT -0500)
Sioux Gateway

Weather History for KSUX - May, 2013

Change the Weather History Date:

Tuesday, May 21, 2013

  Actual Average Record
Temperature  
Mean Temperature 57 °F 63 °F  
Max Temperature 62 °F 75 °F 94 °F (1973)
Min Temperature 52 °F 51 °F 31 °F (1895)
Degree Days  
Heating Degree Days 8 5  
Month to date heating degree days 198 148  
Since 1 July heating degree days 7026 6800  
Cooling Degree Days 0 2  
Month to date cooling degree days 39 28  
Year to date cooling degree days 40 39  
Growing Degree Days 8 (Base 50)    
Moisture  
Dew Point 52 °F    
Average Humidity 83    
Maximum Humidity 94    
Minimum Humidity 58    
Precipitation  
Precipitation 0.08 in 0.12 in 1.75 in (1945)
Month to date precipitation 3.17 2.48  
Year to date precipitation 11.22 8.72  
Snow  
Snow 0.00 in 0.00 in 0.00 in ()
Month to date snowfall 1.4 0.2  
Since 1 July snowfall 45.1 35.0  
Snow Depth 0.00 in    
Sea Level Pressure  
Sea Level Pressure 29.62 in    
Wind  
Wind Speed 14 mph (West)    
Max Wind Speed 21 mph    
Max Gust Speed 28 mph    
Visibility 8 miles    
Events Rain    
T = Trace of Precipitation, MM = Missing Value Source: NWS Daily Summary

Daily Weather History Graph

Daily Weather History Graph

Search for Another Location

Airport or City:

Trip Planner

Search our weather history database for the weather conditions in past years. The results will help you decide how hot, cold, wet, or windy it might be!

Date:

Astronomy

May. 21, 2013 Rise Set
Actual Time 5:58 AM CDT 8:46 PM CDT
Civil Twilight 5:25 AM CDT 9:19 PM CDT
Nautical Twilight 4:43 AM CDT 10:01 PM CDT
Astronomical Twilight 3:56 AM CDT 10:49 PM CDT
Moon 4:57 PM CDT (5/21) 3:31 AM CDT (5/21)
Length of Visible Light 15h 54m
Length of Day
14h 48m
Waxing Gibbous, 84% of the Moon is Illuminated
May 21
Waxing Gibbous
May 24
Full
May 31
Last Quarter
Jun 8
New
Jun 16
First Quarter

Hourly Weather History & Observations

Time (CDT) Temp. Dew Point Humidity Pressure Visibility Wind Dir Wind Speed Gust Speed Precip Events Conditions
12:52 AM 59.0 °F 54.0 °F 83% 29.56 in 10.0 mi West 10.4 mph - N/A   Overcast
1:52 AM 57.9 °F 53.1 °F 84% 29.56 in 10.0 mi West 12.7 mph - N/A   Mostly Cloudy
2:52 AM 55.9 °F 51.1 °F 84% 29.57 in 10.0 mi West 9.2 mph - N/A   Mostly Cloudy
3:52 AM 55.9 °F 48.9 °F 77% 29.57 in 10.0 mi WNW 11.5 mph - N/A   Overcast
4:52 AM 55.9 °F 48.9 °F 77% 29.58 in 10.0 mi West 12.7 mph - N/A   Overcast
5:52 AM 54.0 °F 48.9 °F 83% 29.58 in 10.0 mi West 11.5 mph - 0.00 in   Overcast
6:30 AM 53.6 °F 48.2 °F 82% 29.58 in 10.0 mi West 11.5 mph - N/A   Scattered Clouds
6:45 AM 53.6 °F 48.2 °F 82% 29.59 in 10.0 mi West 11.5 mph 19.6 mph N/A   Mostly Cloudy
6:52 AM 54.0 °F 48.9 °F 83% 29.59 in 10.0 mi West 13.8 mph - N/A   Mostly Cloudy
7:52 AM 55.9 °F 48.0 °F 75% 29.60 in 10.0 mi West 17.3 mph - N/A   Overcast
8:52 AM 57.0 °F 48.0 °F 72% 29.62 in 10.0 mi WSW 19.6 mph 24.2 mph N/A   Overcast
9:41 AM 59.0 °F 48.2 °F 67% 29.61 in 10.0 mi West 17.3 mph - N/A   Overcast
9:52 AM 57.9 °F 46.9 °F 67% 29.61 in 10.0 mi West 18.4 mph 24.2 mph N/A   Overcast
10:52 AM 57.9 °F 46.9 °F 67% 29.62 in 10.0 mi WSW 12.7 mph - N/A   Overcast
11:27 AM 57.2 °F 46.4 °F 67% 29.62 in 10.0 mi WSW 16.1 mph 20.7 mph 0.00 in   Overcast
11:52 AM 60.1 °F 48.0 °F 64% 29.61 in 10.0 mi SW 12.7 mph 21.9 mph 0.00 in   Overcast
12:52 PM 59.0 °F 48.0 °F 67% 29.61 in 10.0 mi WSW 17.3 mph 25.3 mph N/A   Overcast
1:52 PM 59.0 °F 48.9 °F 69% 29.62 in 10.0 mi SW 12.7 mph - N/A   Overcast
2:52 PM 60.1 °F 52.0 °F 75% 29.62 in 10.0 mi SW 12.7 mph - 0.00 in   Overcast
3:40 PM 57.2 °F 55.4 °F 94% 29.63 in 2.5 mi SSW 16.1 mph - 0.00 in Rain Light Rain
3:48 PM 57.2 °F 55.4 °F 94% 29.62 in 2.0 mi SSW 15.0 mph - 0.01 in Rain Light Rain
3:52 PM 57.9 °F 55.9 °F 93% 29.62 in 2.0 mi SSW 13.8 mph - 0.01 in Rain Light Rain
4:19 PM 59.0 °F 55.4 °F 88% 29.61 in 3.0 mi SW 13.8 mph - 0.02 in Rain Light Rain
4:29 PM 57.2 °F 55.4 °F 94% 29.61 in 2.5 mi SW 9.2 mph - 0.03 in Rain Rain
4:41 PM 59.0 °F 57.2 °F 94% 29.61 in 9.0 mi SW 13.8 mph - 0.05 in Rain Light Rain
4:52 PM 60.1 °F 57.0 °F 90% 29.60 in 8.0 mi SW 8.1 mph - 0.05 in Rain Light Rain
5:26 PM 60.8 °F 55.4 °F 82% 29.60 in 10.0 mi NW 11.5 mph - 0.00 in   Overcast
5:52 PM 62.1 °F 55.0 °F 78% 29.61 in 10.0 mi NW 10.4 mph - 0.00 in   Overcast
6:52 PM 57.9 °F 55.0 °F 90% 29.63 in 3.0 mi WNW 15.0 mph - 0.00 in Rain Light Rain
6:58 PM 57.2 °F 55.4 °F 94% 29.63 in 2.5 mi WNW 17.3 mph - 0.01 in Rain Light Rain
7:01 PM 57.2 °F 55.4 °F 94% 29.64 in 3.0 mi WNW 16.1 mph - 0.01 in Rain Light Rain
7:12 PM 57.2 °F 55.4 °F 94% 29.65 in 2.5 mi WNW 13.8 mph - 0.02 in Rain Light Rain
7:19 PM 57.2 °F 55.4 °F 94% 29.65 in 4.0 mi WNW 15.0 mph - 0.02 in Rain Light Rain
7:28 PM 57.2 °F 53.6 °F 88% 29.64 in 6.0 mi NW 20.7 mph 26.5 mph 0.02 in Rain Light Rain
7:52 PM 55.9 °F 54.0 °F 93% 29.66 in 10.0 mi NW 16.1 mph - 0.02 in   Overcast
8:03 PM 55.4 °F 53.6 °F 94% 29.66 in 10.0 mi NW 20.7 mph - N/A   Overcast
8:22 PM 55.4 °F 53.6 °F 94% 29.66 in 10.0 mi WNW 17.3 mph - N/A   Overcast
8:38 PM 55.4 °F 53.6 °F 94% 29.65 in 10.0 mi NW 18.4 mph 26.5 mph N/A   Overcast
8:52 PM 55.0 °F 52.0 °F 89% 29.66 in 10.0 mi WNW 15.0 mph 27.6 mph N/A   Overcast
9:52 PM 54.0 °F 51.1 °F 90% 29.69 in 10.0 mi WNW 18.4 mph 26.5 mph N/A   Overcast
10:52 PM 53.1 °F 51.1 °F 93% 29.68 in 10.0 mi WNW 15.0 mph - N/A   Overcast
11:13 PM 53.6 °F 51.8 °F 94% 29.67 in 10.0 mi NW 17.3 mph 25.3 mph N/A   Overcast
11:52 PM 53.1 °F 51.1 °F 93% 29.68 in 10.0 mi NW 13.8 mph 25.3 mph N/A   Overcast